THOR ABLESTAR DEB, 1435

Orbit data source: Space-Track

THOR ABLESTAR DEB, 1435 is space debris in LEO originally from a launch on Thu, 24 Jun 1965 UTC launched from the Air Force Western Test Range (AFWTR). Debris objects in space refer to the collection of defunct objects orbiting the Earth. Examples of debris include non-operational satellites, rocket bodies, and fragments generated from explosions, collisions, or faulty payload assembly.

Loading next visibility...
Identifier
1435, 1965-048D
Orbit
LEO
Country
Flag of USUS
Related business
Manufacturer
Unknown
Mission
Spacecraft
Bus & Motor
Unknown
Mass
Unknown
Launch date (UTC)
1965-06-24 (60 years ago)
Launch vehicle
Unknown
Launch site
Air Force Western Test Range (AFWTR)
Object type
Payload
Rocket body
Debris
Shape & HBR
Unknown shape, 0.1 m
Radar Cross Section
Small (<0.1 m²)

Expand to show TLE details & history
Last TLE update: 2 days ago

TLE from 2 days ago
0 THOR ABLESTAR DEB
1 01435U 65048D   25306.23569617  .00000917  00000-0  97242-3 0  9995
2 01435  89.8813 292.8496 0056127 278.4097  99.4663 13.73001056995826
Epoch: 2025-11-02T05:39Z
TLE epoch observation values (Epoch: 2025-11-02T05:39:24.149Z)
Latitude
18.50262°
Longitude
166.28417°
Altitude
998.311 km
Speed
7.35 km/s
True Right ascension
19h 31m 33s
True Declination
18° 24' 10"
Sunlit
Object was in daylight at epoch
Visualization orbit readout
Latitude
Unknown
Longitude
Unknown
Altitude
Unknown
Speed
Unknown
Apparent Right ascension
Unknown
Apparent Declination
Unknown
Sunlit
N/A
Visualization observer readout
Local Sidereal Time
00:28:41
Azimuth
Unknown
Elevation
Unknown
Doppler factor
Unknown
Orbital elements
Apogee altitude
1,027.164 km
Perigee altitude
944.501 km
Semi-major axis
7,363.97 km
Eccentricity
0.00561
Inclination
89.8813°
RAAN
292.8496°
Arg. of periapsis
278.4097°
True anomaly
100.09997°
Mean anomaly
99.4663°
Eccentric anomaly
99.78321°
Mean motion
3.43459 °/min
Orbital period
104.82 mins
BSTAR
0.00097242
Loading maneuver chart data...
Computing Atmospheric mass density...

Documentation

Showing up to 5 results
|